This is the latest recevied weather packets stored in our database for station/object SV9TNF-56. If no packets are shown the sender has not sent any weather packets the latest 10 day(s).
| Time | Temp. | Humidity | Pressure | Rain* | Wind** | Luminosity | Snow |
|---|---|---|---|---|---|---|---|
| 1788124650 | 24.44° C | 63% | 1019 hPa | 0 mm | 8.49 m/s, 201° | - | - |
| 1788124350 | 24.44° C | 63% | 1019.3 hPa | 0 mm | 7.6 m/s, 195° | - | - |
| 1788124049 | 24.44° C | 65% | 1019 hPa | 0 mm | 12.96 m/s, 136° | - | - |
| 1788123749 | 24.44° C | 64% | 1019.3 hPa | 0 mm | 9.83 m/s, 184° | - | - |
| 1788123449 | 24.44° C | 65% | 1019 hPa | 0 mm | 8.94 m/s, 150° | - | - |
| 1788123149 | 24.44° C | 66% | 1019.3 hPa | 0 mm | 8.94 m/s, 238° | - | - |
| 1788122849 | 24.44° C | 65% | 1019.3 hPa | 0 mm | 4.92 m/s, 180° | - | - |
| 1788122549 | 24.44° C | 64% | 1019.3 hPa | 0 mm | 8.05 m/s, 263° | - | - |
| 1788122249 | 24.44° C | 62% | 1019.3 hPa | 0 mm | 6.26 m/s, 222° | - | - |
| 1788121949 | 24.44° C | 63% | 1019 hPa | 0 mm | 14.75 m/s, 264° | - | - |
| 1788121649 | 25° C | 59% | 1019 hPa | 0 mm | 4.92 m/s, 281° | - | - |
| 1788121349 | 25° C | 62% | 1019.3 hPa | 0 mm | 6.26 m/s, 222° | - | - |
| 1788121049 | 25° C | 58% | 1019 hPa | 0 mm | 14.75 m/s, 312° | - | - |
| 1788120748 | 25° C | 54% | 1019 hPa | 0 mm | 8.94 m/s, 240° | - | - |
| 1788120448 | 25° C | 55% | 1019 hPa | 0 mm | 13.86 m/s, 312° | - | - |
| 1788120148 | 25° C | 59% | 1019 hPa | 0 mm | 17.88 m/s, 257° | - | - |
| 1788119848 | 24.44° C | 61% | 1019 hPa | 0 mm | 8.49 m/s, 294° | - | - |
| 1788119548 | 25° C | 64% | 1019 hPa | 0 mm | 8.05 m/s, 321° | - | - |
| 1788119248 | 25° C | 61% | 1019 hPa | 0 mm | 15.2 m/s, 306° | - | - |
| 1788118948 | 25° C | 61% | 1019 hPa | 0 mm | 10.28 m/s, 324° | - | - |
| 1788118648 | 25° C | 59% | 1019 hPa | 0 mm | 13.86 m/s, 334° | - | - |
| 1788118348 | 25.56° C | 56% | 1019 hPa | 0 mm | 21.01 m/s, 312° | - | - |
| 1788118048 | 25.56° C | 55% | 1019 hPa | 0 mm | 12.52 m/s, 263° | - | - |
| 1788117747 | 25.56° C | 55% | 1019 hPa | 0 mm | 10.28 m/s, 244° | - | - |
| 1788117448 | 25.56° C | 54% | 1019.3 hPa | 0 mm | 5.36 m/s, 168° | - | - |
* Rain latest hour (hover to see other rain measurements)
** Current wind speed in m/s (hover to see current wind gust speed)